Find Starlink 37077

NORAD ID: 68169 Int'l Des: 2026-050 Owner: SPXS Country: US Constellation: starlink operational
LEOCIRCULAR

現在のビュー

3D地球を読み込み中...

About Starlink 37077

Starlink 37077 (NORAD 68169) is a starlink constellation satellite (v2 mini) launched Mar 14, 2026 by SPXS of US. It operates in LEO, CIRCULAR orbit with a mass of 575.00 kg.

Starlink 37077について

説明を読み込み中...

次回通過

Passes for default location (London). Set your location on the main map for personalized predictions.

高度履歴

Loading altitude history...

軌道要素

1 68169U 26050C 26166.31173207 .00014632 00000-0 44334-3 0 9995
2 68169 53.1564 172.3098 0001057 80.3773 279.7349 15.34400280 15641
Epoch: Jun 15, 2026 • Age: 5 hours

現在のステータス

高度 471.4 km
速度 7.63 km/s
衛星直下点 -28.13°S, 63.93°E
打ち上げ日 Mar 14, 2026
運用期間 0.2 years
タイプ internet

技術仕様

分類 Payload
質量 575.00 kg
乾燥質量 530.00 kg
総質量 575.00 kg
長さ 0.30 m
直径 4.10 m
スパン 29.00 m
形状 Box + pan
製造者 SPXS
バスタイプ Starlink V2MO
フェーズステータス In Orbit
所有者/国 SPXS/US

Most Searched